Regional Weather Roundup
Issued by NWS

Home | Current Version | Previous Version | Text Only | Print | Product List | Glossary On
Versions: 1 2 3 4 5 6 7 8 9 10 11 12 13 14 15 16 17 18 19 20 21 22 23 24 25 26 27 28 29 30 31 32 33 34 35 36 37 38 39 40 41 42 43 44 45 46 47 48 49 50
000
ASUS44 KMEG 070210
RWRTN
TENNESSEE HOURLY STATE WEATHER ROUNDUP
NATIONAL WEATHER SERVICE MEMPHIS TN
800 PM CST FRI MAR 06 2015

TNZ002-004-019-021-049-052-054-088>092-070300-
WEST TENNESSEE

CITY           SKY/WX    TMP DP  RH WIND       PRES   REMARKS
MEMPHIS INTL   CLEAR     31  18  58 CALM      30.50S
NWS MEMPHIS      N/A     29 N/A N/A MISG        N/A
JACKSON        CLEAR     26  14  60 S5        30.49R WCI  20
DYERSBURG      CLEAR     27   7  43 S3        30.49F
UNION CITY     CLEAR     21  10  63 S5        30.45S WCI  15
PARIS          CLEAR     19   9  63 SW6       30.46S WCI  11
LEXINGTON      CLEAR     27  12  54 CALM      30.47R
SAVANNAH       CLEAR     27  21  80 CALM      30.48S
$$

TNZ008-025-027-028-033-062-065-066-070300-
NORTH MIDDLE TENNESSEE

CITY           SKY/WX    TMP DP  RH WIND       PRES   REMARKS
NASHVILLE      CLEAR     29  18  63 S5        30.47S WCI  24
CLARKSVILLE    PTCLDY    30  15  53 SW5       30.45S WCI  25
SMYRNA         CLEAR     27  21  77 CALM      30.49R
COOKEVILLE     CLEAR     25  21  86 CALM      30.43F
CROSSVILLE     CLEAR     28  16  60 CALM      30.40S
$$

TNZ061-075-076-078-094-096-097-070300-
SOUTH MIDDLE TENNESSEE

CITY           SKY/WX    TMP DP  RH WIND       PRES   REMARKS
FAYETTEVILLE   CLEAR     27  19  74 CALM        N/A
TULLAHOMA      CLEAR     27  19  74 CALM        N/A
WINCHESTER     CLEAR     28  21  74 CALM      30.47R
MCMINNVILLE    CLEAR     27  25  93 CALM      30.45R
COLUMBIA         N/A     28  25  86 CALM      30.45S
SHELBYVILLE    CLEAR     27  25  93 CALM      30.47S
$$

TNZ017-018-042-046-047-070300-
NORTHEAST TENNESSEE

CITY           SKY/WX    TMP DP  RH WIND       PRES   REMARKS
TRI CITIES     PTCLDY    29  15  56 CALM      30.41R
ELIZABETHTON   CLEAR     23  19  86 CALM      30.40S
$$

TNZ012-013-036-069-073-074-070300-
CENTRAL EAST TENNESSEE

CITY           SKY/WX    TMP DP  RH WIND       PRES   REMARKS
KNOXVILLE      CLEAR     32  17  54 SW5       30.44R WCI  27
OAK RIDGE      CLEAR     32  21  64 CALM      30.46R
GATLINBURG     CLEAR     28  19  69 CALM      30.43S
MORRISTOWN     CLEAR     30  21  69 CALM      30.42S
$$

TNZ083-085-099-070300-
SOUTHEAST TENNESSEE

CITY           SKY/WX    TMP DP  RH WIND       PRES   REMARKS
CHATTANOOGA    CLEAR     35  26  69 N3        30.46R
$$

SKY/WX REPORTED AS FAIR MEANS FEW OR NO CLOUDS BELOW
12 THOUSAND FEET.



USA.gov is the U.S. government's official web portal to all federal, state and local government web resources and services.